Location: Bullenkuhlen
(53.7689°N, 9.7495°E)
Time: 05:12:27
(UTC+00:00)

STARLINK-29 - Pass Details

Date: 09 April 2020
Orbit: 387 x 401 km, 53.0° (Epoch: 01 June)

Event Time Altitude Azimuth Distance (km) Brightness Sun altitude
Rises 19:59:36 0° 239° (WSW) 2,289 7.1 -15.0°
Reaches altitude 10° 20:01:42 10° 234° (SW) 1,438 5.9 -15.2°
Maximum altitude 20:04:48 46° 159° (SSE) 545 3.2 -15.6°
Enters shadow 20:05:21 41° 126° (SE) 595 3.3 -15.7°
